Flag for Sweden Weather past 2 weeks in Södertälje, Sweden

Now
52 °F

Sunny.


Feels Like: 51 °F
Forecast: 45 / 61 °F
Wind: 3 mph from North

Location: Stockholm Bromma Airport

Current Time: May 26, 2015 at 8:23:55 AM

Latest Report: May 26, 2015 at 7:50 AM


Visibility: 10 mi

Pressure: 29.77 "Hg

Humidity: 72%

Dew point: 43 °F

Location of SödertäljeLocation

Historic Weather in Södertälje — Graph

°F

Södertälje temperature yesterday

Maximum temperature yesterday: 59 °F (at 12:20 PM)
Minimum temperature yesterday: 43 °F (at 2:20 AM)
Average temperature yesterday: 53 °F

Past Weeks' High & Low Weather Summary

 TemperatureHumidityPressure
High63 °F (May 24, 12:50 PM)100% (May 12, 10:20 PM)30.21 "Hg (May 12, 10:20 PM)
Low30 °F (May 16, 3:20 AM)31% (May 23, 4:50 PM)29.39 "Hg (May 13, 4:50 AM)
Average49 °F72%29.81 "Hg
* Reported May 11 7:20 AM — May 26 7:20 AM, Södertälje, Weather by CustomWeather, © 2015

Note: Actual official high and low records may vary slightly from our data, if they occured in-between our weather recording intervals... More about our weather records

Advertising

Södertälje weather history for previous 24 hours

 ConditionsComfort  
Time TempWeatherWind HumidityBarometerVisibility
7:20 AM
Tue, May 26
52 °FSunny.5 mph77%29.77 "Hg10 mi
6:50 AM50 °FSunny.3 mph88%29.77 "Hg10 mi
6:20 AM50 °FSunny.3 mph94%29.77 "Hg10 mi
5:50 AM48 °FLight rain. Mostly cloudy.3 mph100%29.77 "HgN/A
5:20 AM48 °FDrizzle. Mostly cloudy.2 mph94%29.77 "HgN/A
4:50 AM48 °FPassing clouds.1 mph94%29.77 "HgN/A
4:20 AM48 °FPassing clouds.No wind94%29.77 "HgN/A
3:50 AM48 °FMostly cloudy.2 mph94%29.80 "HgN/A
3:20 AM48 °FLight rain. Overcast.2 mph94%29.77 "HgN/A
2:50 AM48 °FLight rain. Partly cloudy.3 mph94%29.80 "HgN/A
2:20 AM50 °FPassing clouds.3 mph88%29.77 "HgN/A
1:50 AM50 °FOvercast.3 mph82%29.77 "HgN/A
1:20 AM50 °FOvercast.3 mph82%29.80 "HgN/A
12:50 AM50 °FOvercast.7 mph82%29.80 "HgN/A
12:20 AM50 °FOvercast.3 mph82%29.80 "HgN/A
11:50 PM
Mon, May 25
52 °FOvercast.3 mph77%29.80 "HgN/A
11:20 PM52 °FOvercast.3 mph77%29.80 "HgN/A
10:20 PM52 °FPartly sunny.3 mph77%29.80 "HgN/A
9:50 PM52 °FSunny.6 mph77%29.80 "Hg10 mi
9:20 PM54 °FSunny.7 mph72%29.80 "Hg10 mi
8:50 PM54 °FPassing clouds.7 mph72%29.80 "HgN/A
8:20 PM54 °FScattered clouds.7 mph72%29.80 "HgN/A
7:50 PM55 °FBroken clouds.7 mph67%29.77 "HgN/A
7:20 PM55 °FPartly sunny.7 mph67%29.77 "HgN/A
6:50 PM55 °FPartly sunny.9 mph72%29.77 "HgN/A
6:20 PM55 °FPartly sunny.6 mph72%29.77 "HgN/A
5:50 PM55 °FBroken clouds.8 mph72%29.77 "HgN/A
5:20 PM55 °FPartly sunny.8 mph72%29.80 "HgN/A
4:50 PM55 °FMostly cloudy.9 mph72%29.80 "HgN/A
4:20 PM57 °FPartly sunny.9 mph67%29.80 "HgN/A
3:50 PM57 °FPartly sunny.8 mph63%29.80 "HgN/A
3:20 PM55 °FPartly sunny.9 mph63%29.80 "HgN/A
2:50 PM57 °FPartly sunny.10 mph63%29.80 "HgN/A
2:20 PM57 °FPartly sunny.8 mph63%29.80 "HgN/A
1:50 PM57 °FPartly sunny.8 mph63%29.80 "HgN/A
1:20 PM59 °FCloudy.8 mph59%29.80 "HgN/A
12:50 PM57 °FPartly sunny.8 mph59%29.80 "HgN/A
12:20 PM59 °FPassing clouds.9 mph51%29.80 "HgN/A
11:50 AM57 °FPassing clouds.10 mph51%29.80 "HgN/A
11:20 AM57 °FPassing clouds.10 mph55%29.80 "HgN/A
10:50 AM57 °FPassing clouds.9 mph51%29.80 "HgN/A
10:20 AM57 °FPassing clouds.9 mph55%29.80 "HgN/A
9:50 AM57 °FPassing clouds.9 mph55%29.80 "HgN/A
9:20 AM55 °FPassing clouds.10 mph59%29.80 "HgN/A
8:50 AM55 °FSunny.12 mph59%29.80 "Hg10 mi
8:20 AM55 °FPassing clouds.10 mph59%29.80 "HgN/A
Weather by CustomWeather, © 2015

See weather overviewHow to use our weather pages